Regional Weather Roundup
Issued by NWS

Home | Current Version | Previous Version | Text Only | Print | Product List | Glossary On
Versions: 1 2 3 4 5 6 7 8 9 10 11 12 13 14 15 16 17 18 19 20 21 22 23 24 25 26 27 28 29 30 31 32 33 34 35 36 37 38 39 40 41 42 43 44 45 46 47 48 49 50
000
ASUS43 KLSX 291257
RWRMO

WEATHER SUMMARY FOR MISSOURI
NATIONAL WEATHER SERVICE SPRINGFIELD MO
800 AM CDT SAT APR 29 2017

NOTE: "FAIR" INDICATES FEW OR NO CLOUDS BELOW 12,000 FEET WITH NO
       SIGNIFICANT WEATHER AND/OR OBSTRUCTIONS TO VISIBILITY.
       CURRENT SKY AND/OR WEATHER CONDITIONS ARE NOT AVAILABLE FOR
       CHILLICOTHE AND FARMINGTON.

MOZ001>031-035>038-043-044-053-054-291400-
...NORTHERN AND WESTERN MISSOURI...

CITY           SKY/WX    TMP DP  RH WIND       PRES   REMARKS
KANSAS CTY INT RAIN      45  44  97 N17G26    29.89R FOG
LEE`S SUMMIT   RAIN      47  47 100 N15G22    29.88R
ST JOSEPH      CLOUDY    45  44  97 NE18G26   29.96F
CHILLICOTHE      N/A     47  45  93 N13G23    29.92F

$$
MOZ066>068-077>081-088>096-101>105-291400-
...SOUTHWEST MISSOURI...

CITY           SKY/WX    TMP DP  RH WIND       PRES   REMARKS
SPRINGFIELD    TSTM      61  59  93 N12       29.71R FOG
JOPLIN         LGT RAIN  53  53 100 N10G22    29.72F
BRANSON        LGT RAIN  63  63 100 E9G17     29.73F FOG

$$
MOZ032>034-039>042-045>050-055>058-069>072-291400-
...CENTRAL MISSOURI...

CITY           SKY/WX    TMP DP  RH WIND       PRES   REMARKS
COLUMBIA       NOT AVBL
JEFFERSON CITY CLOUDY    58  53  84 E9        29.86R
ROLLA          LGT RAIN  58  32  37 E14G23    29.83R
SEDALIA        LGT RAIN  52  52 100 E14       29.83F FOG
WHITEMAN AFB   CLOUDY    50  50 100 NE9       29.84R

$$
MOZ051-052-059>065-291400-
...EAST CENTRAL MISSOURI...

CITY           SKY/WX    TMP DP  RH WIND       PRES   REMARKS
ST LOUIS INTL  CLOUDY    59  56  89 E14       29.88R

$$
MOZ072>076-082>087-097>100-106>115-291400-
...SOUTH CENTRAL AND SOUTHEAST MISSOURI...

CITY           SKY/WX    TMP DP  RH WIND       PRES   REMARKS
CAPE GIRARDEAU LGT RAIN  65  63  93 VRB6G17   29.92R
POPLAR BLUFF   CLOUDY    67  66  97 NE7       29.86R
WEST PLAINS    RAIN      62  60  93 VRB5      29.84R FOG

$$



USA.gov is the U.S. government's official web portal to all federal, state and local government web resources and services.